Probability
74 71 84 68 55 48 45 52 39 39 52 39 39 32 35 29 32 35 84 77 81 81 68 65 61 68 71 71 68 61 52 61 74 74 61 58 65 58 71 55 52 48 39
77 77 77 74 45 42 42 52 32 45 39 39 32 39 42 42 35 48 61 84 77 84 81 71 61 52 61 61 65 68 65 68 68 74 74 71 65 68 61 52 61 65 61
81 74 55 68 42 42 55 55 45 39 29 26 23 29 26 23 32 42 45 58 71 77 84 74 61 65 61 61 58 65 71 68 71 68 71 71 77 74 68 65 65 65 61
81 71 58 52 52 48 52 48 39 29 23 23 23 26 32 42 26 29 42 45 55 52 48 52 55 65 55 52 58 65 65 74 77 77 81 74 65 77 77 58 65 58 52
71 58 58 61 52 29 48 23 35 26 23 26 13 29 23 26 32 26 32 32 35 42 48 48 48 55 48 35 39 42 52 58 65 71 77 81 71 74 74 61 55 55 52
68 68 58 65 35 29 32 32 35 35 32 32 6 10 16 23 26 29 19 26 35 23 19 26 42 39 45 42 42 29 32 52 48 55 55 58 65 65 65 55 52 48 45
65 71 35 61 42 29 32 19 19 19 29 19 10 6 3 10 13 16 19 10 3 13 19 35 39 23 35 23 26 35 29 23 39 58 52 48 55 48 52 45 45 42 42
58 42 52 55 39 45 32 29 29 16 13 16 3 3 10 10 13 0 3 10 6 16 19 16 19 23 19 26 16 26 32 29 23 26 39 48 45 39 42 39 35 32 29
42 39 42 29 39 19 26 32 26 16 6 13 6 3 6 10 10 6 3 6 10 16 16 13 16 19 6 29 23 6 16 23 26 16 29 23 23 19 32 39 29 35 23
35 39 32 29 32 23 26 16 10 10 13 16 6 0 0 0 6 6 3 6 13 16 6 0 3 10 6 3 3 3 3 3 10 10 13 13 13 10 16 19 26 26 26
35 29 32 32 26 16 13 16 16 10 6 10 10 0 0 0 0 0 0 3 3 3 6 3 10 13 6 3 16 0 0 0 0 3 10 10 10 10 10 10 10 10 19
39 19 19 26 16 6 19 23 13 6 6 6 6 0 0 0 0 0 0 3 3 3 0 0 3 10 6 3 0 0 0 0 0 0 3 6 3 10 10 10 6 6 6
32 35 6 29 10 16 13 19 23 6 6 10 10 0 0 0 0 0 0 0 0 0 0 0 0 3 0 3 6 0 0 0 0 0 0 0 0 0 0 3 6 6 6
26 26 19 19 13 13 6 16 10 10 10 10 3 3 3 0 0 0 0 0 0 0 0 0 0 0 3 6 0 0 0 0 0 0 0 0 0 0 0 0 0 0 0
19 23 19 13 19 6 6 19 10 10 13 6 3 3 3 0 0 0 0 0 0 0 0 0 0 0 0 10 0 3 6 0 0 0 0 0 0 0 0 0 0 0 0
23 32 26 13 10 10 6 10 6 10 10 10 3 3 3 0 0 0 0 0 0 0 0 0 0 0 0 0 0 0 0 0 0 0 0 0 0 0 0 0 0 0 0
35 32 26 16 6 10 6 10 0 3 6 3 0 0 0 0 0 0 0 0 0 0 0 0 0 0 0 0 0 0 0 0 0 0 0 0 0 0 0 0 0 0 0
35 32 26 19 6 10 6 6 6 3 3 3 0 0 0 0 0 0 0 0 0 0 0 0 0 0 0 0 0 0 0 0 0 0 0 0 0 0 0 0 0 0 0
32 23 26 23 16 10 16 13 6 3 3 3 3 0 0 0 0 0 0 0 0 0 0 0 0 0 0 0 0 0 0 3 0 0 0 0 0 0 0 0 0 0 0
32 29 26 19 16 13 13 10 10 3 3 3 3 0 0 0 0 0 0 0 0 0 0 0 0 0 0 0 0 0 0 0 0 0 0 0 0 0 0 0 0 0 0
26 32 29 19 13 13 6 10 10 6 6 3 0 0 0 0 0 0 0 0 0 0 0 0 0 0 0 3 0 0 0 0 0 0 0 0 0 0 0 0 0 0 0
29 32 29 19 16 6 3 0 6 10 13 16 10 3 3 0 0 0 0 0 0 3 3 3 0 0 6 3 0 0 0 0 0 0 3 0 0 0 0 0 0 0 0
29 32 29 26 16 10 0 0 0 6 13 16 13 13 0 0 0 0 0 0 0 0 0 0 3 0 3 3 3 0 3 0 0 0 0 0 0 0 0 0 0 0 0
29 32 35 26 32 16 0 0 0 0 6 13 10 10 6 3 0 0 0 3 3 0 0 0 0 0 0 3 0 0 0 0 0 0 0 0 0 0 0 0 0 0 0
42 42 42 45 42 23 0 0 0 0 0 3 10 10 6 6 0 0 0 3 3 3 0 0 0 0 0 0 0 0 0 0 0 0 3 0 0 0 0 0 0 0 0
48 35 32 42 39 39 6 0 0 0 6 6 10 0 0 0 0 0 0 3 0 0 0 0 0 0 0 0 0 0 0 0 0 0 0 3 0 0 0 0 0 0 0
Height
5888 5889 5889 5890 5891 5891 5892 5892 5893 5893 5894 5895 5896 5897 5897 5898 5898 5898 5899 5899 5899 5899 5899 5899 5899 5899 5899 5900 5900 5900 5901 5901 5901 5902 5902 5902 5903 5903 5903 5904 5904 5904 5904
5886 5887 5888 5889 5889 5890 5891 5891 5892 5892 5893 5894 5895 5896 5896 5897 5897 5897 5897 5897 5898 5898 5898 5898 5898 5898 5898 5898 5898 5898 5899 5900 5900 5900 5901 5901 5901 5901 5902 5902 5902 5903 5903
5884 5885 5887 5888 5888 5889 5890 5890 5891 5892 5892 5893 5894 5895 5895 5895 5896 5896 5896 5896 5896 5896 5897 5897 5897 5897 5897 5897 5897 5897 5897 5898 5898 5898 5898 5899 5899 5899 5900 5900 5900 5901 5901
5882 5884 5885 5886 5887 5888 5889 5890 5890 5891 5892 5892 5893 5893 5894 5894 5894 5895 5895 5895 5895 5895 5895 5895 5896 5896 5895 5895 5895 5895 5895 5896 5896 5896 5896 5897 5897 5897 5897 5898 5898 5898 5899
5880 5882 5884 5885 5886 5888 5888 5889 5890 5891 5891 5892 5892 5892 5893 5893 5893 5893 5894 5894 5894 5894 5894 5894 5894 5894 5894 5894 5894 5894 5894 5894 5894 5894 5894 5894 5894 5895 5895 5895 5895 5896 5896
5878 5880 5882 5884 5885 5887 5887 5888 5889 5890 5891 5891 5891 5891 5892 5892 5892 5893 5893 5893 5893 5893 5893 5893 5893 5893 5892 5892 5892 5892 5892 5892 5892 5892 5891 5892 5892 5892 5892 5892 5892 5893 5893
5876 5878 5881 5883 5884 5885 5886 5887 5888 5889 5890 5890 5891 5891 5891 5891 5891 5892 5892 5892 5892 5892 5891 5891 5891 5891 5891 5890 5890 5890 5890 5890 5889 5889 5889 5889 5889 5889 5889 5889 5889 5889 5890
5874 5877 5879 5881 5883 5884 5885 5886 5887 5888 5889 5889 5890 5890 5891 5891 5891 5891 5891 5891 5891 5890 5890 5890 5890 5889 5889 5889 5889 5888 5888 5888 5887 5887 5887 5886 5886 5886 5886 5886 5886 5886 5886
5873 5875 5877 5879 5881 5883 5884 5885 5886 5887 5888 5889 5889 5890 5890 5891 5890 5891 5890 5890 5890 5890 5889 5889 5889 5888 5888 5887 5887 5887 5886 5886 5885 5885 5884 5884 5883 5883 5883 5883 5883 5883 5882
5871 5873 5876 5878 5880 5882 5883 5884 5885 5886 5887 5888 5888 5889 5890 5890 5890 5890 5890 5890 5889 5889 5889 5888 5888 5887 5887 5886 5886 5885 5884 5884 5883 5883 5882 5881 5881 5880 5880 5880 5879 5879 5878
5869 5871 5874 5876 5878 5880 5882 5883 5884 5885 5886 5887 5888 5889 5889 5889 5889 5889 5889 5889 5889 5889 5888 5887 5886 5886 5885 5885 5884 5883 5883 5882 5881 5880 5880 5879 5878 5878 5877 5877 5876 5875 5875
5867 5869 5872 5874 5876 5878 5880 5882 5883 5885 5886 5887 5887 5888 5888 5888 5889 5889 5889 5888 5888 5888 5887 5886 5885 5885 5884 5883 5882 5882 5881 5880 5879 5878 5877 5876 5875 5875 5874 5873 5872 5872 5871
5865 5868 5870 5873 5875 5877 5879 5880 5882 5883 5885 5885 5886 5887 5887 5887 5887 5888 5888 5887 5887 5886 5886 5885 5884 5883 5882 5881 5881 5880 5879 5878 5877 5875 5874 5873 5872 5871 5870 5870 5869 5868 5867
5863 5866 5868 5871 5873 5875 5877 5879 5880 5882 5883 5884 5885 5885 5886 5886 5886 5886 5886 5886 5885 5885 5884 5883 5882 5881 5880 5879 5878 5877 5876 5875 5874 5872 5871 5870 5869 5868 5867 5866 5865 5863 5862
5861 5863 5866 5869 5871 5873 5875 5877 5879 5880 5881 5882 5883 5884 5884 5884 5884 5884 5884 5884 5883 5883 5882 5881 5880 5879 5878 5876 5875 5874 5873 5871 5870 5869 5867 5866 5865 5864 5862 5861 5860 5859 5857
5858 5861 5864 5866 5869 5871 5873 5875 5877 5878 5879 5880 5881 5881 5882 5882 5882 5882 5881 5881 5880 5880 5879 5878 5877 5876 5874 5873 5872 5870 5869 5868 5866 5865 5863 5862 5860 5859 5857 5856 5855 5853 5852
5856 5859 5862 5864 5866 5869 5871 5873 5874 5876 5877 5877 5878 5879 5879 5879 5879 5878 5878 5877 5877 5876 5875 5874 5873 5872 5870 5869 5867 5866 5864 5863 5861 5860 5858 5856 5855 5853 5851 5850 5848 5847 5845
5854 5857 5859 5861 5864 5866 5868 5870 5871 5873 5874 5874 5875 5875 5875 5875 5875 5875 5874 5873 5872 5871 5871 5869 5868 5867 5865 5864 5862 5860 5859 5857 5855 5854 5852 5850 5848 5847 5845 5843 5841 5840 5838
5851 5854 5856 5859 5861 5863 5865 5867 5868 5869 5870 5871 5871 5871 5871 5871 5871 5870 5870 5869 5868 5867 5865 5864 5863 5861 5859 5858 5856 5854 5852 5850 5848 5847 5845 5843 5841 5839 5838 5836 5834 5832 5830
5849 5851 5853 5856 5858 5860 5862 5863 5864 5865 5866 5867 5867 5867 5867 5867 5866 5866 5865 5864 5862 5861 5860 5858 5856 5855 5853 5851 5849 5847 5845 5843 5841 5839 5837 5835 5833 5831 5829 5827 5825 5823 5821
5846 5848 5850 5852 5854 5856 5858 5859 5860 5861 5861 5861 5862 5862 5862 5861 5861 5860 5859 5858 5856 5855 5853 5851 5849 5847 5845 5843 5841 5839 5837 5835 5832 5830 5828 5826 5824 5822 5820 5817 5815 5813 5811
5843 5845 5847 5849 5850 5852 5853 5854 5855 5856 5856 5856 5856 5856 5856 5855 5854 5853 5852 5851 5849 5848 5846 5844 5842 5840 5837 5835 5833 5830 5828 5826 5824 5821 5818 5816 5813 5811 5808 5806 5804 5802 5800
5839 5841 5843 5845 5846 5847 5848 5849 5850 5850 5850 5850 5850 5849 5849 5848 5847 5846 5845 5843 5842 5840 5838 5836 5834 5832 5829 5826 5824 5821 5818 5816 5813 5810 5808 5806 5803 5800 5797 5794 5792 5790 5787
5835 5836 5838 5840 5841 5842 5842 5843 5843 5843 5843 5843 5843 5842 5841 5840 5839 5838 5837 5835 5834 5832 5829 5827 5825 5822 5819 5816 5814 5811 5807 5805 5802 5799 5796 5793 5791 5787 5785 5781 5779 5776 5774
5829 5831 5832 5834 5834 5835 5836 5836 5836 5836 5836 5835 5835 5834 5833 5832 5831 5829 5827 5826 5824 5822 5819 5817 5814 5812 5809 5805 5802 5799 5796 5793 5790 5787 5783 5780 5777 5774 5771 5768 5765 5762 5759
5823 5825 5826 5827 5828 5828 5828 5829 5828 5828 5827 5827 5826 5825 5824 5823 5821 5819 5818 5816 5813 5811 5808 5806 5803 5800 5797 5793 5790 5787 5783 5780 5777 5774 5770 5766 5763 5759 5757 5754 5750 5747 5744
Wind_Speed
9 8 8 7 6 6 5 5 5 5 6 6 5 5 6 6 6 7 7 7 7 7 8 8 8 8 8 8 8 8 8 8 8 9 9 9 9 9 9 9 8 8 7
9 9 9 8 8 7 6 6 6 6 6 6 6 5 6 6 6 7 7 7 7 7 8 7 8 8 8 8 9 9 10 9 9 10 10 10 10 10 10 10 10 9 9
10 10 8 8 8 7 7 6 6 6 6 5 5 5 5 6 7 7 7 7 7 7 8 8 8 8 7 7 8 9 9 10 10 10 11 11 11 11 11 11 12 11 11
11 10 9 8 8 7 6 6 6 6 6 5 5 5 5 6 6 7 7 7 7 7 7 8 8 8 7 7 8 8 8 8 9 10 11 11 12 12 13 13 13 13 12
12 10 10 9 8 7 7 6 6 5 5 5 5 5 5 5 6 6 6 7 7 7 7 7 7 8 8 8 8 9 9 10 10 11 12 12 13 13 13 14 14 14 14
13 11 10 10 9 8 7 6 6 6 5 4 4 3 4 4 4 5 6 6 6 7 7 7 8 8 8 9 9 9 10 11 11 11 12 13 13 13 13 14 15 15 16
13 12 11 11 10 9 8 7 7 6 5 4 4 3 3 3 3 4 4 5 5 5 6 7 7 8 8 9 9 10 10 10 11 12 12 13 14 14 14 15 16 17 17
14 13 12 12 11 10 8 8 7 6 5 4 3 3 2 2 2 3 3 4 5 5 5 6 6 6 7 7 8 9 9 10 11 11 12 13 14 15 15 15 16 17 18
15 14 13 13 12 10 9 9 8 7 6 5 4 3 2 2 2 3 3 3 4 4 5 6 6 7 7 8 8 8 9 10 11 12 12 12 13 13 14 15 15 15 16
16 15 14 13 12 11 10 9 8 8 7 5 4 3 3 2 2 2 3 3 4 4 6 6 7 7 7 8 8 8 9 10 10 11 11 12 12 13 13 15 15 16 16
17 16 15 14 13 12 11 10 9 8 7 6 5 4 3 3 2 3 3 4 4 5 6 6 7 7 8 8 8 9 10 10 11 11 12 12 13 13 14 15 15 16 17
17 16 16 15 14 13 12 11 10 9 8 6 5 4 3 3 4 4 4 5 5 6 7 7 8 8 9 9 10 10 11 11 12 13 13 13 14 14 15 15 16 16 17
18 17 16 15 14 14 13 12 11 9 8 7 6 6 5 5 5 5 6 6 7 7 8 8 9 9 10 11 11 12 12 13 13 14 14 15 15 16 16 17 17 18 19
18 18 17 16 15 15 14 13 12 10 8 7 7 7 7 7 7 7 8 8 9 9 10 10 11 11 12 13 13 14 14 15 15 15 16 17 17 18 18 19 19 20 20
19 18 18 17 16 15 14 13 12 11 9 8 8 8 8 8 9 9 9 10 11 12 12 12 13 14 14 15 16 16 16 17 17 18 18 19 19 20 21 21 21 22 22
19 18 18 17 16 15 15 14 13 12 11 10 10 10 10 10 11 11 11 12 13 14 14 15 16 16 17 17 18 19 19 19 20 20 21 21 22 22 23 23 23 24 24
19 18 18 18 17 16 15 15 14 13 12 11 12 12 12 13 13 13 13 14 15 16 17 17 18 19 19 20 20 21 21 22 22 23 23 24 24 24 25 25 25 25 26
19 18 18 18 17 17 16 15 14 14 14 14 14 14 14 15 15 15 16 16 17 18 19 20 21 22 22 23 23 24 24 25 25 25 26 26 26 27 27 27 28 28 29
19 18 19 18 18 18 17 16 16 16 16 16 16 16 17 17 17 18 18 19 20 21 22 23 24 24 25 25 26 26 27 27 28 28 29 29 29 30 30 31 31 32 32
19 19 19 19 19 18 18 18 18 18 18 18 18 19 19 20 20 21 22 22 23 24 25 25 26 27 28 29 29 29 30 30 31 32 32 33 33 33 33 34 34 35 35
19 19 19 20 20 20 20 20 20 21 21 21 21 21 22 22 23 24 24 25 26 27 28 28 29 30 31 31 32 33 33 34 34 35 35 36 36 36 37 37 37 38 38
19 20 20 20 21 21 22 22 23 23 24 23 24 24 24 25 26 27 27 28 29 29 30 31 32 33 33 34 35 36 36 36 37 38 38 38 40 40 40 41 40 40 40
20 20 21 22 22 23 23 24 25 25 26 26 27 27 28 28 29 30 31 31 32 32 33 34 35 35 36 37 38 39 39 39 40 41 42 42 42 43 43 44 44 44 44
22 22 22 23 24 24 25 26 27 28 29 29 30 30 31 31 31 33 34 34 35 36 37 37 38 38 39 40 41 42 42 43 43 44 44 44 45 45 46 46 46 46 47
24 24 25 26 26 26 27 27 29 30 31 32 32 32 33 34 35 36 36 37 38 39 39 40 40 41 42 43 44 44 45 46 46 46 47 47 48 48 48 48 49 49 49
25 26 26 27 28 28 29 29 31 31 32 33 33 35 35 36 37 37 38 39 40 41 42 43 43 44 45 46 47 47 48 49 50 50 50 50 50 50 50 50 52 52 52
Wind_Direction
218 219 224 219 213 214 218 216 209 210 213 215 216 222 229 236 241 242 241 242 240 240 244 245 244 248 250 248 248 250 251 250 250 250 249 248 249 250 254 253 252 254 257
222 224 229 219 215 215 212 212 214 214 215 217 219 224 231 238 242 247 247 250 251 251 253 254 254 256 259 256 254 252 252 256 256 257 257 257 256 258 258 257 256 256 255
224 222 225 217 213 211 206 205 210 212 211 213 221 228 234 238 244 249 247 248 251 254 253 255 257 261 265 268 263 259 257 258 260 261 258 259 260 263 261 262 259 256 255
223 220 218 208 206 203 201 199 201 205 209 217 227 233 239 243 245 243 246 250 253 257 259 256 257 259 262 268 269 265 265 267 267 265 261 260 261 264 263 261 258 257 258
218 216 211 201 201 201 197 197 198 202 209 218 231 239 242 246 244 241 246 253 257 260 265 265 263 262 264 266 267 269 269 271 271 270 266 262 263 265 265 264 262 260 262
215 215 212 204 199 199 193 192 195 196 204 217 230 241 245 243 242 243 251 263 265 265 264 267 271 273 273 271 271 276 276 275 277 276 272 268 268 271 271 268 268 266 265
216 213 208 202 197 195 194 194 195 200 206 209 214 228 235 239 242 249 258 269 274 275 271 275 278 281 282 281 278 279 277 277 282 279 274 272 271 271 273 271 270 270 269
210 203 199 198 197 197 198 200 202 205 206 203 202 211 216 222 243 256 261 271 280 285 286 288 294 293 290 288 288 287 285 283 281 282 280 277 274 273 273 274 272 272 273
204 201 199 199 198 199 199 200 201 201 199 196 200 205 214 233 254 261 274 284 290 295 297 297 296 297 295 296 296 291 290 289 288 287 286 285 283 280 279 278 277 277 278
202 202 200 200 200 201 202 200 196 196 194 197 205 207 211 233 266 288 292 296 298 304 304 301 299 300 300 299 298 298 294 292 292 292 291 291 291 287 286 284 282 281 280
202 201 201 202 200 199 199 196 195 194 195 201 205 209 222 236 258 282 288 296 298 303 305 305 305 304 303 303 300 300 299 298 296 295 294 292 292 291 289 287 286 287 286
204 203 202 201 200 200 201 199 198 198 203 211 218 225 241 252 266 281 289 296 299 302 304 305 306 305 305 304 303 303 303 302 299 298 297 295 295 293 291 290 288 286 286
205 203 203 203 203 201 202 204 204 205 210 218 228 238 252 262 271 280 287 294 298 300 302 304 305 305 305 305 303 301 300 300 300 299 296 296 296 295 294 292 291 288 287
206 205 204 205 204 203 204 208 211 211 216 224 233 244 255 263 272 279 285 290 293 296 299 302 304 305 305 305 305 303 300 299 298 298 296 294 294 293 293 292 291 289 288
209 207 208 207 207 207 208 212 213 216 223 233 243 251 258 266 272 278 282 286 289 292 295 298 300 302 303 303 303 302 300 299 297 296 296 295 294 293 292 292 291 291 289
210 210 210 208 209 210 211 213 217 224 231 242 251 258 263 268 272 277 281 284 287 290 291 293 295 297 299 300 300 299 298 297 296 296 295 294 293 291 291 291 290 290 289
212 214 215 212 212 214 217 219 224 231 238 248 257 261 265 269 274 279 281 283 285 287 288 290 292 293 294 295 296 296 296 295 295 294 294 293 292 291 291 290 290 289 289
214 216 216 213 215 219 223 226 230 236 245 253 259 263 267 271 275 280 282 283 284 286 287 289 290 291 292 293 294 294 294 294 293 292 292 292 291 291 290 290 289 289 289
217 218 217 218 221 224 228 233 238 245 252 258 263 266 269 273 276 279 282 283 285 286 287 288 289 290 291 291 292 292 292 292 292 291 291 290 289 289 289 289 289 288 288
220 219 220 223 226 230 235 240 246 251 256 262 266 269 271 274 277 279 282 284 286 286 287 288 289 289 290 290 290 291 292 291 291 290 290 289 289 289 288 288 288 287 286
224 225 228 229 232 236 241 245 250 254 259 263 267 270 273 275 277 279 281 283 284 285 286 287 288 289 289 289 290 290 291 291 290 290 290 290 290 289 288 288 288 287 286
229 232 235 238 239 242 247 251 256 259 262 265 269 271 274 276 278 280 281 282 283 284 285 286 287 288 288 288 290 290 291 290 290 290 290 290 290 290 289 289 288 287 286
235 238 239 243 246 249 253 257 261 263 265 268 270 273 275 277 278 280 281 282 284 286 287 288 288 289 289 289 289 289 289 289 290 290 290 290 289 289 289 289 288 287 286
240 242 246 249 252 254 258 262 265 266 268 269 272 274 276 278 279 281 282 283 285 286 287 288 288 288 288 289 289 289 288 289 289 290 290 290 289 289 289 289 288 287 286
244 247 250 252 256 258 261 265 268 269 270 271 273 275 277 279 280 281 282 283 284 285 286 288 288 289 289 290 290 290 290 290 290 290 290 289 289 289 288 288 287 287 286
248 251 254 256 257 261 265 268 270 271 273 273 274 275 277 279 280 281 283 283 284 285 286 287 288 288 288 289 289 289 290 290 290 290 289 289 289 288 288 287 287 287 287